星链-36385(STARLINK-36385)

导读

STARLINK-36385是美国SpaceX公司星链星座的一员,于2026年2月7日发射入轨。星链计划旨在构建全球低轨卫星互联网,为偏远地区等传统网络覆盖不足区域提供高速低延迟宽带服务。作为星链扩张阶段的新增卫星,STARLINK-36385继承了新一代技术,助力星座持续完善全球覆盖能力,推动天基互联网基础设施建设。

Basic Information
目录编号:
67717
目录名称:
STARLINK-36385
国际标识:
2026-025AA
轨道中心:
EARTH
卫星名称:
星链-36385
卫星全名:
星链-36385(STARLINK-36385)
卫星状态:
在轨 (已飞行209 天)
发射日期:
2026-02-07 UTC
国别 :
美国 (US)
星等 :
--
Orbit Information
数据来源 国际轨道数据
星历时间: 2026-09-03T13:48:30+0800
21小时前
查看轨道信息
半长轴: 6843.659km
偏心率: 0.0000448
轨道倾角: 97.287°
近地点辐角 122.952°
升交点赤经 356.434°
平近点角 237.177°
近地点: 465.215km
远地点: 465.829km
周期: 93.906分钟
每日圈数: 15.334523
Detailed Information
固有亮度:
5
最大亮度:
2.5
卫星平台:
Starlink V1.0
覆盖范围:
全球
运营商:
太空探索技术公司
运营商所在国:
美国
制造商(研发单位):
太空探索技术公司
制造商所在国:
美国
使用方式:
暂无
Satellite Introduction
Starlink 计划是 SpaceX 推出的全球卫星互联网项目,通过发射低轨道卫星,为全球尤其是偏远地区提供高速、低延迟的互联网服务。自 2019 年起,Starlink 已部署数千颗卫星,旨在缩小全球数字鸿沟,推动互联网普及。该项目还为军事、航空等行业提供通信支持,带来广泛经济效益。
2D Orbit Map
3D Orbit Map
Orbit Altitude Analysis Chart
Orbit Inclination Analysis Chart
Orbit Comprehensive Analysis Chart
View Comprehensive Chart
Conjunction Data List
Event ID Objects TCA Miss Dist (km) Collision Risk Probability Collision Risk Index (CRI) Action
CDM_260905-025006-757206-771721
2026-09-05T
02:50:43+0000
1.204 km
极远距离
8.027985E-6 低风险 0.53
CDM_260905-002906-757206-771721
2026-09-05T
00:29:47+0000
1.205 km
极远距离
8.01945E-6 低风险 0.53
CDM_260905-020306-757206-771721
2026-09-05T
02:03:44+0000
1.799 km
极远距离
2.263897E-6 低风险 0.42
CDM_260905-042406-757206-771721
2026-09-05T
04:24:41+0000
2.026 km
极远距离
1.668277E-6 低风险 0.39